Regional Weather Roundup
Issued by NWS Albany, NY

Home | Current Version | Previous Version | Text Only | Print | Product List | Glossary On
Versions: 1 2 3 4 5 6 7 8 9 10 11 12 13 14 15 16 17 18 19 20 21 22 23 24 25 26 27
000
ASUS41 KALY 251410
RWRALY

NEW YORK STATE HOURLY WEATHER ROUNDUP
NATIONAL WEATHER SERVICE ALBANY NY
1000 AM EDT TUE JUL 25 2017

NOTE: "FAIR" INDICATES FEW OR NO CLOUDS BELOW 12,000 FEET WITH NO
SIGNIFICANT WEATHER AND/OR NO OBSTRUCTIONS TO VISIBILITY.

NYZ032-033-038>043-046>054-057>066-NYZ062>081-082-084-251500-
EAST


CITY           SKY/WX    TMP DP  RH WIND       PRES   REMARKS
ALBANY         LGT RAIN  59  56  89 CALM      30.10R FOG
GLENS FALLS    CLOUDY    60  53  77 NE7       30.10R
POUGHKEEPSIE   CLOUDY    62  55  77 CALM      30.07S
NEWBURGH       CLOUDY    61  59  94 CALM      30.09S
MONTGOMERY     CLOUDY    63  58  83 CALM      30.08R
WHITE PLAINS   PTSUNNY   62  56  80 NE6       30.08R
ISLIP          CLOUDY    65  59  81 NE9       30.06R
NEW YORK CITY  CLOUDY    67  61  81 NE13      30.06R
CENTRAL PARK   CLOUDY    65  59  81 VRB5      30.10R
$$

NYZ005>009-017-018-044>046-055-056-251500-
CENTRAL


CITY           SKY/WX    TMP DP  RH WIND       PRES   REMARKS
FULTON         CLOUDY    61  59  93 NW8       30.08R
SYRACUSE       CLOUDY    62  61  96 W10       30.07R
ROME           CLOUDY    61  59  93 SE6       30.08R
ELMIRA         CLOUDY    64  60  87 N9        30.10R
BINGHAMTON     LGT RAIN  61  58  90 NW7       30.09R
$$

NYZ026>034-041>043-087-251500-
NORTH


CITY           SKY/WX    TMP DP  RH WIND       PRES   REMARKS
WATERTOWN      CLOUDY    59  59 100 NE13      30.08R FOG
FORT DRUM      NOT AVBL
OGDENSBURG     CLOUDY    60  58  91 NE10G18   30.12R
MASSENA        CLOUDY    59  56  89 NE13      30.14R
SARANAC LAKE   CLOUDY    54  54 100 NE7       30.10R
PLATTSBURGH    CLOUDY    59  55  87 E5        30.13S
$$

NYZ001>004-010>016-019>021-085-251500-
WEST


CITY           SKY/WX    TMP DP  RH WIND       PRES   REMARKS
NIAGARA FALLS  CLOUDY    65  53  65 N9        30.17R
BUFFALO        PTSUNNY   63  55  75 N9        30.16R
DUNKIRK        CLOUDY    64  57  78 N9        30.17S
JAMESTOWN      CLOUDY    57  54  88 N8        30.18S
WELLSVILLE     CLOUDY    59  56  89 NW9       30.17R
ROCHESTER      LGT RAIN  61  58  90 NW6       30.15R
PENN YAN       CLOUDY    63  56  78 NW9       30.12R
$$

             KEY
       WCI = WIND CHILL INDEX
       VSB = VISIBILITY
       HX  = HEAT INDEX
$$




USA.gov is the U.S. government's official web portal to all federal, state and local government web resources and services.